Location: Melbourne
(37.8120°S, 144.9677°E)
Time: 03:54:35
(UTC+11:00)

Daily predictions for brighter satellites

Satellite Brightness Start Highest point End
(mag) Time Altitude Azimuth Time Altitude Azimuth Time Altitude Azimuth
Cosmos 2219 Rocket 4.2 00:17:01 23° SSW 00:17:01 23° SSW 00:19:35 10° S
ATLAS 3B R/B 3.9 02:33:17 10° SSW 02:40:02 39° SE 02:40:08 39° SE
ADEOS Rocket 4.5 03:11:28 28° S 03:11:28 28° S 03:14:07 10° S
Okean O Rocket 4.4 03:17:08 16° SE 03:17:08 16° SE 03:18:59 10° SSE
ATLAS 2AS CENTAUR R/B 3.6 03:21:26 37° S 03:21:26 37° S 03:25:11 10° SSE
ADEOS II 4.3 03:21:01 17° E 03:22:29 20° ESE 03:26:12 10° SSE
SL-16 R/B 3.7 03:57:37 10° SSE 04:03:21 37° E 04:05:09 31° NE
USA 238 DEB 3.6 04:02:18 10° SSW 04:09:29 88° ESE 04:16:33 10° NNE
USA 238 3.6 04:02:23 10° SSW 04:09:34 87° ESE 04:16:38 10° NNE
SL-08 R/B 4.3 04:07:28 10° SSE 04:10:58 46° S 04:10:58 46° S
Cosmos 1092 Rocket 3.8 04:27:53 77° NNW 04:28:24 87° W 04:34:48 10° S
Cosmos 2082 Rocket 3.6 04:26:37 26° NE 04:28:37 33° ENE 04:33:38 10° SE
Cosmos 158 Rocket 4.0 04:29:06 79° ESE 04:29:06 79° ESE 04:34:17 10° SSE
Cosmos 1892 4.3 04:30:57 32° E 04:30:57 32° E 04:34:15 10° SSE
ATLAS 3B R/B 4.0 04:23:55 10° SW 04:27:15 28° WSW 04:27:15 28° WSW
ATLAS CENTAUR R/B 2.5 04:32:36 40° SE 04:32:36 40° SE 04:35:25 10° SSE
UNK 3.9 04:31:26 10° SSE 04:35:54 69° E 04:35:54 69° E
NOSS 3-2 (C) 4.1 04:34:26 10° SSW 04:40:53 54° SE 04:46:47 10° NE
IRS-P2 Rocket 4.5 04:41:34 73° WSW 04:41:34 73° WSW 04:46:35 10° SSW
RESURS DK-1 3.3 04:45:59 40° ENE 04:46:16 41° ENE 04:50:13 10° SE
Okean O Rocket 3.4 04:54:36 20° SW 04:54:36 20° SW 04:56:14 10° SSW
Cosmos 1269 Rocket 4.5 04:53:26 45° WSW 04:53:26 45° WSW 04:58:23 10° S
Cosmos 2278 4.0 04:47:51 10° SSW 04:53:35 65° ESE 04:59:12 10° NNE
COSMOS 2487 3.8 04:55:20 35° S 04:55:20 35° S 04:57:37 10° S
Meteor 1-26 Rocket 4.2 04:48:29 10° S 04:54:29 90° ESE 04:58:30 22° N
Cosmos 1833 Rocket 3.4 04:52:29 27° NNE 04:55:14 50° ENE 05:00:43 10° SSE
CZ-4B R/B 3.4 04:56:10 50° W 04:56:10 50° W 05:01:19 10° SSW
ADEOS II 2.2 05:01:59 50° W 05:01:59 50° W 05:06:58 10° SSW
NOSS 3-4 (A) 4.0 05:00:28 40° NW 05:03:32 71° SW 05:11:14 10° SSE
NOSS 3-4 (C) 4.0 05:00:33 40° NW 05:03:39 72° SW 05:11:21 10° SSE
Landsat 4 4.0 05:08:42 10° SSE 05:12:32 64° ENE 05:13:51 38° N
Meteor PRIRODA 3.6 05:14:58 65° W 05:14:58 65° W 05:18:41 10° SSW
Cosmos 2026 Rocket 4.0 05:11:58 32° NNW 05:15:04 65° W 05:21:28 10° S
Meteor 1-31 Rocket 2.7 05:14:04 29° NNE 05:15:58 87° ESE 05:19:52 10° S
Cosmos 1656 4.1 05:10:58 10° SSW 05:16:31 63° ESE 05:22:06 10° NNE
Radarsat Rocket 4.2 05:14:28 10° NNE 05:20:16 71° ESE 05:26:17 10° S
Meteor 2-10 Rocket 3.7 05:18:15 10° SSW 05:23:25 47° W 05:25:26 31° NW
Cosmos 1428 Rocket 4.4 05:20:01 17° N 05:25:01 80° W 05:31:17 10° S
Tiangong 2 2.3 05:24:39 29° SSW 05:25:36 37° S 05:28:33 10° E
Cosmos 1703 Rocket 3.8 05:21:24 10° SSW 05:25:39 46° W 05:26:22 41° WNW
DELTA 2 R/B (1) 3.7 05:24:17 29° W 05:27:12 74° S 05:32:48 10° E
Cosmos 1417 Rocket 4.4 05:21:23 10° S 05:27:47 74° W 05:34:03 10° N
USA 215 3.4 05:23:55 10° SE 05:30:34 76° NE 05:35:16 21° NW
COSMOS 2455 2.9 05:27:34 10° SW 05:33:28 55° WNW 05:39:19 10° N
SL-8 R/B 3.8 05:30:28 10° SW 05:35:21 77° SSE 05:40:10 10° ENE
Cosmos 1331 Rocket 3.9 05:30:38 10° SSW 05:35:53 79° WNW 05:41:02 10° NNE
Cosmos 1697 Rocket 3.1 05:30:17 10° SSW 05:35:57 66° ESE 05:41:33 10° NNE
ERS-2 4.4 05:41:14 12° SW 05:41:14 12° SW 05:41:38 10° SW
USA 161 3.1 05:36:41 10° SSW 05:38:06 21° SW 05:38:06 21° SW
Cosmos 1400 Rocket 2.9 05:35:57 14° N 05:39:25 80° E 05:43:26 10° SSE
Iridium 4 Rocket 3.7 05:36:11 16° NNW 05:40:32 54° W 05:45:35 10° S
Cosmos 1980 Rocket 3.5 05:36:21 10° S 05:41:45 43° ESE 05:47:04 10° NE
Cosmos 1606 3.1 05:40:15 10° S 05:44:06 65° E 05:47:55 10° NNE
Timation 2 Rocket 3.8 05:40:09 18° NNW 05:44:44 74° WSW 05:50:46 10° SSE
SL-16 R/B 3.3 05:41:21 10° S 05:46:50 33° WSW 05:50:14 20° WNW
Cosmos 1782 2.7 05:43:12 10° S 05:47:16 82° W 05:51:16 10° N
SeaSat 1 4.1 05:43:21 10° NE 05:47:53 37° ESE 05:52:27 10° S
Cosmos 2266 Rocket 4.1 05:42:57 10° N 05:49:00 81° E 05:55:13 10° S
Cosmos 1110 Rocket 4.2 05:44:58 10° SSW 05:50:05 50° WNW 05:55:06 10° N
Okean-O 3.3 05:47:40 16° NNW 05:50:36 33° W 05:54:41 10° SSW
MOZ.5/SAFIR/RUBIN 5/SL-8 4.0 05:46:00 10° S 05:50:41 51° WSW 05:54:31 15° NW
CZ-3B R/B 3.9 05:43:47 10° SW 05:51:31 69° SE 05:54:10 10° NE
Cosmos 1825 2.2 05:47:46 10° N 05:51:36 82° E 05:55:28 10° S
Ariane Rocket 3.4 05:53:45 10° NNE 05:58:47 69° ESE 06:03:53 10° S
NOSS 3-2 (A) 4.1 05:55:40 10° SW 06:01:05 30° WNW 06:06:11 10° N
MTI 4.4 05:58:29 10° SSE 06:01:47 60° E 06:05:01 10° N
Meteor 1-27 Rocket 3.9 05:57:29 10° S 06:03:06 76° E 06:08:44 10° NNE
CZ-3 R/B 3.1 05:48:40 16° WNW 06:03:52 47° N 06:09:41 10° ENE
NOAA 6 4.4 06:03:27 10° NNW 06:08:16 40° W 06:13:10 10° SSW
Okean 1-7 4.2 06:04:56 10° SW 06:08:28 23° W 06:11:55 10° NW
Cosmos 2251 Rocket 4.4 06:06:02 15° WNW 06:09:48 32° WSW 06:14:39 10° S
Cosmos 1302 Rocket 4.0 06:05:36 10° SSW 06:10:54 66° WNW 06:16:09 10° N
ATLAS CENTAUR R/B 3.6 06:09:25 10° WSW 06:10:56 12° SW 06:12:29 10° SSW
Cosmos 2082 Rocket 3.1 06:08:31 14° WNW 06:12:38 32° WSW 06:17:41 10° S
IDEFIX/ARIANE 42P 3.8 06:08:46 10° NE 06:13:43 46° ESE 06:18:44 10° S
Cosmos 1315 Rocket 2.9 06:13:19 10° NNW 06:17:27 67° W 06:21:39 10° S
SL-16 R/B 4.3 06:15:02 10° S 06:20:09 32° ESE 06:25:12 10° ENE
USA 81 4.1 06:16:04 10° S 06:21:22 64° W 06:26:36 10° N
ASTRO E2 4.3 06:19:02 12° WNW 06:21:41 21° NNW 06:24:44 10° NNE
OAO 3 Copernicus 4.5 06:18:24 11° W 06:23:12 64° N 06:28:14 10° ENE
RESURS DK-1 4.2 06:21:56 10° W 06:24:31 16° SW 06:27:14 10° SSW
Cosmos 1408 3.5 06:22:50 10° NW 06:26:14 31° WSW 06:29:42 10° SSW
NOSS 3-2 (C) 4.4 06:26:22 10° WSW 06:31:13 23° WNW 06:35:50 10° NNW
CENTAUR R/B 2.3 06:26:44 10° SW 06:32:46 83° WNW 06:38:25 10° NNE
ERBS 3.5 06:31:21 10° WSW 06:34:14 24° WNW 06:37:07 10° N
Cosmos 2322 Rocket 3.7 06:29:53 10° S 06:35:23 44° ESE 06:40:49 10° NE
Cosmos 2360 4.3 06:29:37 10° SSW 06:35:24 86° WNW 06:41:06 10° NNE
COS B Rocket 3.1 06:35:05 10° NNW 06:37:45 37° W 06:40:40 10° SSW
Cosmos 1833 Rocket 4.0 06:35:03 10° WNW 06:39:26 23° SW 06:43:52 10° S
BREEZE-M DEB (TANK) 4.4 06:38:26 10° W 06:44:34 24° SSW 06:47:26 10° SSE
